Tracking 19634 objects as of 22-May-2019
HD Live streaming from Space Station
objects crossing your sky now

CZ-4 DEB

Track CZ-4 DEB now!
10-day predictions


NORAD ID: 26286
Int'l Code: 1999-057FY
Perigee: 677.6 km
Apogee: 780.7 km
Inclination: 98.5 °
Period: 99.2 minutes
Semi major axis: 7100 km
RCS: 0.0126 m2 (small)
Launch date: October 14, 1999
Source: People's Republic of China (PRC)
Launch site: Taiyaun Space Center, China (TSC)

Note: This is SATELLITE DEBRIS
aabbcc
Your satellite tracking list
Your tracking list is empty




NASA's NSSDC Master Catalog

Two Line Element Set (TLE):
1 26286U 99057FY  19141.92701331 +.00000248 +00000-0 +72722-4 0  9994
2 26286 098.5109 125.3615 0072598 254.8691 132.4532 14.51125348011542
Source of the keplerian elements: AFSPC